sat.trackr.live / text

‹ back to catalog

STARLINK-31186

NORAD 59030 · 2024-038H

PAYLOAD ACTIVE UNKNOWN

§ Identity

Operator
Country
US
Launch date
2024-02-25
Launch site
AFETR
Launch vehicle
Mass (kg)
RCS (m²)

Purposes: comms

External: N2YO · Heavens-Above · Gunter

§ Orbital elements

Epoch: 2026-05-25T04:17:37.176000Z

Period
94.27 min
Inclination
43.0015°
Eccentricity
0.0001326
Mean motion
15.27561251 rev/d
Perigee alt
482.2 km
Apogee alt
484.0 km
Semi-major
6,861.2 km
B*
5.8566e-5
RAAN
315.2669°
Arg perigee
269.7428°
Mean anomaly
90.3271°
Rev number
12,645

§ Raw data

STARLINK-311861 59030U 24038H   26145.17890250  .00001349  00000+0  58566-4 0  99942 59030  43.0015 315.2669 0001326 269.7428  90.3271 15.27561251126459

JSON: /api/v1/satellites/59030 · /tle

For live sub-satellite position, see the globe view (requires WebGL).

§ Visibility from observer

Set your observer location to see the next 7 days of passes ≥ 10°. The values pass through the URL so the page stays shareable.

No JS? Fill the form by hand. The geolocation button needs JavaScript.